CST,Max TemperatureF,Mean TemperatureF,Min TemperatureF,Max Dew PointF,MeanDew PointF,Min DewpointF,Max Humidity, Mean Humidity, Min Humidity, Max Sea Level PressureIn, Mean Sea Level PressureIn, Min Sea Level PressureIn, Max VisibilityMiles, Mean VisibilityMiles, Min VisibilityMiles, Max Wind SpeedMPH, Mean Wind SpeedMPH, Max Gust SpeedMPH,PrecipitationIn, CloudCover, Events, WindDirDegrees
2013-1-1,50,41,32,26,22,18,66,49,29,30.20,30.12,30.02,10,10,10,13,9,22,0.00,1,,330
2013-1-2,51,40,28,27,24,22,75,57,33,30.24,30.17,30.08,10,10,10,9,6,,0.00,0,,125
2013-1-3,35,32,28,31,29,22,100,90,67,30.41,30.35,30.21,10,3,0,15,9,20,0.25,8,Fog-Snow,76
2013-1-4,34,30,26,29,27,24,96,90,81,30.42,30.36,30.30,10,8,2,12,7,,0.02,7,Snow,115
2013-1-5,50,38,26,30,25,22,89,66,36,30.32,30.26,30.20,10,10,10,14,9,,0.00,0,,240
2013-1-6,48,37,26,29,26,23,88,67,41,30.45,30.33,30.21,10,10,10,10,7,,0.00,0,,235
2013-1-7,50,41,32,34,29,24,87,65,46,30.19,30.01,29.89,10,10,10,20,9,26,0.00,1,,139
2013-1-8,41,36,32,36,33,30,100,86,76,30.06,29.94,29.86,10,6,1,14,7,20,0.00,7,,258
2013-1-9,44,40,35,43,38,34,100,95,87,30.15,30.07,30.00,10,4,1,18,12,24,1.91,8,Rain,307
2013-1-10,61,49,37,40,37,35,97,76,42,30.07,29.97,29.85,10,9,3,16,13,23,0.01,4,Rain,250
2013-1-11,66,57,46,39,35,30,71,47,28,29.82,29.74,29.66,10,10,10,21,10,29,0.00,0,,198
2013-1-12,48,42,35,34,23,15,68,48,26,29.96,29.83,29.76,10,10,10,21,8,25,0.00,0,,311
2013-1-13,41,33,25,25,21,17,85,65,47,30.19,30.08,29.99,10,10,10,10,8,,0.00,0,,32
2013-1-14,39,30,21,23,19,16,88,71,46,30.21,30.13,30.05,10,10,10,9,6,,0.00,2,,40
2013-1-15,37,30,23,21,19,17,85,68,52,30.29,30.19,30.10,10,10,10,10,6,,0.00,4,,303
2013-1-16,51,38,24,22,16,9,75,45,22,30.33,30.29,30.22,10,10,10,17,12,25,0.00,0,,267
2013-1-17,57,44,32,28,23,19,62,44,28,30.48,30.41,30.34,10,10,10,10,8,,0.00,0,,209
2013-1-18,64,49,34,29,26,21,73,45,19,30.40,30.26,30.13,10,10,10,16,9,18,0.00,0,,183
2013-1-19,69,52,34,27,24,17,70,37,14,30.19,30.13,30.06,10,10,9,14,8,,0.00,0,,237
2013-1-20,66,52,37,28,22,17,52,35,15,30.22,30.12,30.02,10,10,10,15,9,,0.00,0,,220
2013-1-21,54,45,36,29,25,20,65,47,32,30.25,30.16,30.05,10,10,10,16,9,20,0.00,0,,261
2013-1-22,69,50,30,45,34,26,83,57,28,30.20,30.14,30.09,10,10,10,13,5,,0.00,0,,160
2013-1-23,77,62,48,46,31,22,66,38,13,30.22,30.14,30.09,10,10,10,16,10,,0.00,0,,212
2013-1-24,82,68,53,39,35,30,52,36,16,30.15,30.09,30.00,10,10,10,14,11,16,0.00,0,,239
2013-1-25,75,64,52,39,37,35,57,40,24,30.13,30.04,29.99,10,10,10,14,9,,0.00,0,,208
2013-1-26,81,64,46,56,43,31,83,54,17,30.04,29.94,29.84,10,10,7,21,9,31,0.00,0,,156
2013-1-27,77,65,53,53,47,43,75,56,30,29.93,29.86,29.80,10,10,10,17,10,24,0.00,1,Rain,144
2013-1-28,79,62,46,55,38,22,83,48,12,29.89,29.79,29.66,10,10,8,21,11,30,0.00,0,,199
2013-1-29,60,52,42,50,25,9,69,38,21,29.88,29.73,29.64,10,10,7,36,16,52,0.00,2,,302
2013-1-30,53,40,28,20,13,3,67,35,14,30.19,30.10,29.92,10,10,10,18,12,29,0.00,0,,283
2013-1-31,63,50,37,20,14,10,37,26,14,30.20,30.15,30.10,10,10,10,14,11,,0.00,0,,229